Temp
88 93 97 95 63 63 70 74 80 80 83 94 96 88 83 85 78 65 93 91 90 86 86 85 83 83 83 83 83 83 83 83 83 83 83 83 83 84 84 84 84 84 84 85 84 84 84 84 84
100 101 99 72 62 60 64 82 81 86 91 87 92 84 86 81 89 86 88 93 92 90 89 87 83 83 83 83 83 84 84 83 83 83 83 83 83 84 84 84 84 84 84 84 85 85 84 84 84
95 102 81 60 60 66 71 84 83 86 95 90 89 93 88 84 90 88 94 95 94 91 92 85 83 83 83 83 84 84 84 84 84 84 83 82 82 83 83 83 84 84 84 84 84 84 84 84 84
99 95 74 63 70 80 81 88 91 87 91 93 90 84 91 97 94 94 96 96 94 94 91 84 83 83 84 84 84 84 84 84 84 83 83 83 82 82 81 82 83 83 84 84 84 84 84 84 84
102 79 66 65 78 85 91 93 92 87 90 90 90 82 84 95 99 97 96 96 91 91 89 87 83 84 84 84 84 84 84 84 83 83 83 82 82 82 80 82 83 83 82 83 84 84 84 84 84
92 77 70 68 75 76 90 95 87 83 77 88 86 84 85 96 96 93 97 95 95 92 91 88 84 84 84 84 84 84 84 83 83 83 83 82 82 81 80 80 82 83 83 84 84 84 84 84 84
90 84 78 75 72 78 88 96 90 89 83 89 90 78 87 92 98 94 93 97 96 93 91 88 87 85 84 84 84 84 84 83 83 83 82 82 83 82 82 79 80 83 84 84 84 84 84 84 83
98 88 82 83 77 80 91 93 96 93 89 100 93 76 80 92 98 94 92 93 92 93 91 88 86 86 84 85 84 84 84 83 83 83 81 82 84 83 83 81 81 82 84 84 84 84 84 84 84
107 84 80 82 83 85 95 91 88 82 90 95 94 92 94 97 100 93 89 88 88 90 92 91 89 87 86 86 85 84 83 84 83 83 81 81 75 77 81 82 82 83 83 84 84 85 84 84 84
97 86 86 90 91 90 94 87 76 70 77 90 92 96 95 96 96 90 90 86 88 89 92 93 92 89 89 90 83 82 80 76 78 77 79 80 76 78 82 83 83 82 83 84 84 84 84 85 81
98 87 94 94 97 97 90 91 87 82 88 92 87 90 93 94 94 93 91 92 89 87 92 91 89 88 85 84 81 79 76 74 74 76 75 77 77 77 78 79 81 81 83 82 85 84 83 75 76
91 96 97 96 97 96 93 97 93 94 93 98 96 94 94 92 94 95 93 95 94 94 94 90 90 83 85 82 82 83 76 74 74 75 77 74 73 74 77 79 80 80 82 82 82 81 79 75 79
95 95 99 98 98 98 98 94 93 93 99 100 97 95 93 94 95 97 97 97 95 92 95 89 90 86 85 79 79 82 75 75 77 74 74 75 77 73 73 77 81 82 83 84 75 83 83 80 85
98 97 98 100 98 99 95 95 88 94 101 97 95 94 95 95 96 96 97 95 94 93 94 91 91 88 89 83 80 78 73 72 77 76 75 75 77 74 72 73 78 77 83 83 83 79 83 81 83
99 92 97 97 97 95 98 88 91 99 100 96 95 95 95 96 97 96 97 96 96 95 93 93 87 88 88 85 85 81 76 77 76 76 75 75 75 75 75 73 74 80 83 79 79 78 83 82 85
94 93 80 93 96 96 95 77 94 100 98 95 96 96 95 96 98 98 99 98 98 97 90 91 95 90 88 85 82 82 80 78 78 79 76 77 75 77 78 75 75 77 78 79 79 81 80 82 82
92 81 85 88 97 95 93 86 95 101 99 96 96 96 96 95 97 98 99 99 98 98 91 94 89 87 87 83 84 83 82 78 77 77 79 79 76 76 79 77 77 81 77 77 79 80 81 80 81
82 84 87 85 93 93 89 89 96 100 99 97 97 96 95 96 97 98 100 100 100 98 95 93 92 86 85 84 81 82 76 73 74 79 79 80 80 76 74 76 79 79 79 77 78 77 79 80 79
91 88 86 90 95 90 88 89 94 98 99 97 97 97 97 97 100 100 100 100 100 98 93 91 89 82 81 83 83 82 75 77 80 80 78 76 78 78 76 75 78 75 76 77 78 77 75 78 81
90 87 86 90 94 91 89 88 94 97 97 99 99 98 98 99 98 98 98 100 98 97 93 90 88 84 81 81 83 84 79 79 81 82 80 80 79 78 76 74 74 78 76 77 75 74 72 74 77
90 87 85 84 90 93 90 85 88 94 97 99 100 102 101 99 98 98 97 98 99 94 93 90 87 84 82 83 83 81 79 77 79 80 81 81 81 77 75 74 73 75 75 72 74 74 74 72 75
84 92 90 87 84 77 92 71 83 79 87 95 98 100 101 101 102 100 99 98 97 96 96 92 88 85 83 84 84 81 77 76 77 80 83 82 80 77 76 75 73 74 76 73 73 75 74 72 71
87 94 89 88 84 84 85 76 73 73 67 83 96 99 101 102 102 80 97 99 100 98 96 94 90 87 86 84 83 80 79 79 82 83 82 81 81 80 77 75 74 74 78 78 75 75 76 75 75
95 90 89 89 85 74 82 79 62 56 60 76 95 98 100 103 101 74 69 102 100 100 96 94 89 87 87 86 85 83 82 80 80 82 81 82 82 82 80 80 77 77 77 78 76 77 74 75 76
92 86 74 71 72 69 82 80 70 67 70 81 94 96 99 102 103 103 102 101 97 93 95 93 88 85 87 87 87 85 84 82 81 82 83 81 83 83 82 81 81 80 77 77 77 77 77 76 76
88 88 76 59 61 67 83 75 77 81 81 98 98 95 99 99 99 99 100 101 99 97 89 87 85 84 87 87 86 86 86 85 86 84 86 86 85 83 84 80 80 81 80 80 79 77 75 77 78
87 82 91 80 77 72 76 75 91 95 94 96 94 95 95 94 94 94 96 98 99 98 98 95 84 83 85 86 86 86 86 85 85 82 82 79 88 88 81 82 80 80 81 79 79 78 78 76 76
91 95 80 82 66 63 62 59 55 83 88 92 94 93 86 74 73 90 91 92 95 97 98 96 95 89 90 91 89 89 88 86 86 84 83 82 84 88 88 86 83 82 80 80 78 76 79 77 76
87 84 86 86 80 65 60 55 85 86 89 90 91 92 88 81 86 90 90 90 91 94 94 95 94 92 90 90 89 88 88 87 86 87 85 83 83 84 84 83 81 81 81 80 77 76 76 77 76
93 87 87 76 71 79 74 69 91 91 92 91 91 92 91 92 93 92 91 90 89 89 89 90 90 90 91 89 90 88 86 85 85 83 84 86 83 82 83 82 79 80 80 79 76 77 77 76 75
MSLP
1004.63 1005.15 1004.21 1003.52 1005.76 1005.15 1003.03 1002.20 1001.68 1001.26 1000.45 1000.38 1000.58 1001.54 1002.67 1003.51 1004.27 1006.19 1007.28 1008.42 1009.53 1010.75 1011.61 1012.07 1012.47 1012.93 1013.38 1013.77 1014.27 1014.72 1015.01 1015.42 1015.67 1015.87 1015.97 1016.23 1016.45 1016.59 1016.78 1016.87 1016.89 1017.08 1017.03 1017.04 1017.28 1017.42 1017.42 1017.40 1017.46
1003.71 1003.31 1003.08 1006.46 1006.28 1005.45 1003.21 1001.04 1000.45 1000.49 1000.56 1001.13 1001.18 1003.11 1002.79 1003.59 1004.47 1006.06 1007.36 1008.47 1009.53 1010.41 1011.23 1011.95 1012.54 1013.03 1013.53 1013.90 1014.36 1014.91 1015.21 1015.66 1015.78 1015.93 1016.23 1016.48 1016.78 1016.98 1017.15 1017.28 1017.23 1017.41 1017.46 1017.40 1017.46 1017.55 1017.58 1017.67 1017.73
1003.73 1002.69 1004.04 1005.75 1005.72 1003.57 1002.30 1000.64 1000.50 1000.94 1000.27 1000.73 1001.34 1002.19 1002.95 1004.20 1005.07 1006.19 1007.20 1008.22 1009.22 1010.15 1010.79 1012.09 1012.65 1013.09 1013.54 1013.95 1014.34 1014.80 1015.24 1015.57 1015.86 1015.87 1016.40 1016.71 1016.72 1017.35 1017.59 1017.70 1017.59 1017.72 1017.72 1017.72 1017.88 1017.71 1017.85 1017.97 1017.99
1002.50 1002.43 1005.12 1006.54 1003.47 1002.59 1001.36 999.91 999.73 1000.55 1000.94 1001.19 1001.92 1003.02 1003.94 1004.43 1004.88 1006.26 1007.54 1008.41 1009.16 1009.81 1011.05 1012.36 1012.81 1013.29 1013.64 1014.08 1014.45 1014.65 1015.12 1015.55 1015.84 1015.97 1016.27 1016.97 1016.88 1017.27 1017.77 1018.11 1018.24 1018.14 1017.96 1017.94 1018.01 1018.21 1018.20 1018.13 1018.14
1001.72 1003.55 1003.88 1004.79 1002.77 1001.47 1000.27 999.72 1000.07 1000.60 1001.27 1001.91 1002.54 1003.91 1004.51 1004.77 1005.54 1006.58 1007.74 1008.68 1009.40 1010.27 1011.55 1012.48 1013.02 1013.43 1013.77 1014.20 1014.57 1014.89 1015.33 1015.61 1015.97 1016.09 1016.27 1016.66 1016.99 1017.36 1017.96 1018.30 1018.36 1018.42 1018.21 1018.07 1018.17 1018.45 1018.46 1018.37 1018.24
1000.27 1002.68 1003.33 1003.59 1002.85 1002.08 1000.24 999.83 1000.38 1001.73 1002.85 1002.77 1003.16 1003.96 1005.00 1005.54 1006.07 1007.22 1007.80 1008.80 1009.67 1010.35 1011.43 1012.52 1013.26 1013.57 1013.93 1014.30 1014.67 1015.05 1015.46 1015.97 1016.19 1016.22 1016.40 1016.27 1016.72 1017.44 1017.96 1018.53 1018.49 1018.42 1018.36 1018.23 1018.36 1018.50 1018.57 1018.42 1018.28
1000.04 1000.15 1001.11 1001.80 1002.36 1001.83 1000.46 1000.24 1000.45 1001.18 1002.37 1002.13 1003.17 1004.25 1005.13 1005.89 1006.12 1007.18 1007.95 1008.48 1009.39 1010.33 1011.23 1012.37 1013.14 1013.68 1014.09 1014.46 1014.91 1015.23 1015.65 1016.12 1016.43 1016.56 1016.69 1016.47 1016.59 1017.39 1017.99 1018.55 1018.60 1018.46 1018.35 1018.36 1018.38 1018.53 1018.53 1018.40 1018.37
998.55 998.98 1000.34 1000.77 1001.16 1001.15 1000.83 1001.02 1001.22 1001.84 1002.32 1002.08 1003.03 1004.10 1004.78 1005.48 1006.02 1007.24 1008.11 1008.88 1009.59 1010.19 1011.30 1012.06 1012.91 1013.59 1014.06 1014.57 1014.97 1015.35 1015.75 1016.21 1016.57 1016.77 1017.03 1016.99 1016.91 1017.35 1017.84 1018.38 1018.51 1018.43 1018.31 1018.33 1018.42 1018.50 1018.38 1018.37 1018.41
997.66 998.80 999.32 999.97 1000.50 1000.54 1000.50 1001.15 1002.91 1004.56 1003.28 1002.40 1002.61 1003.16 1004.26 1005.32 1005.79 1006.77 1008.22 1008.77 1009.57 1010.43 1010.69 1011.37 1012.50 1013.23 1013.61 1014.18 1014.83 1015.33 1015.75 1016.13 1016.55 1016.88 1017.16 1017.29 1017.45 1017.68 1017.92 1018.19 1018.34 1018.29 1018.21 1018.22 1018.36 1018.41 1018.47 1018.44 1018.32
997.73 998.41 999.01 999.76 999.94 1000.12 1000.40 1001.67 1003.83 1005.58 1003.69 1002.50 1002.68 1003.34 1004.59 1005.53 1005.76 1006.72 1007.49 1008.98 1009.12 1009.81 1010.29 1010.88 1011.53 1012.31 1012.96 1013.41 1014.39 1015.20 1015.89 1016.45 1016.65 1016.81 1017.08 1017.25 1017.71 1017.81 1017.90 1018.00 1018.19 1018.21 1018.06 1018.03 1018.23 1018.46 1018.21 1018.28 1018.09
997.93 998.51 999.02 999.56 999.71 999.81 1000.95 1000.83 1001.78 1002.30 1001.56 1001.79 1002.98 1003.88 1004.80 1005.49 1005.88 1006.28 1007.11 1007.75 1008.76 1009.38 1009.79 1010.52 1011.03 1011.73 1012.54 1013.31 1014.19 1015.11 1015.99 1016.71 1016.77 1016.70 1016.96 1017.22 1017.46 1017.80 1018.10 1018.01 1017.89 1017.90 1017.80 1017.72 1017.70 1018.02 1018.08 1018.58 1018.18
998.27 998.85 998.92 999.45 999.78 999.51 999.88 1000.16 1000.78 1001.05 1001.42 1001.77 1002.85 1004.02 1004.73 1005.40 1005.71 1006.09 1006.78 1007.42 1008.19 1008.87 1009.26 1009.96 1010.83 1011.58 1012.20 1013.28 1013.92 1014.43 1015.42 1016.08 1016.63 1016.70 1016.93 1017.19 1017.46 1017.55 1017.67 1017.81 1017.62 1017.66 1017.25 1017.02 1017.32 1017.44 1017.88 1018.01 1017.22
998.00 998.58 998.59 999.23 999.40 999.25 999.75 999.91 1000.45 1000.49 1000.83 1001.81 1002.97 1003.94 1004.62 1005.08 1005.30 1005.73 1006.28 1007.15 1008.08 1008.99 1009.25 1009.80 1010.68 1011.52 1012.47 1013.28 1013.68 1013.71 1014.85 1015.18 1015.72 1016.29 1016.70 1016.82 1017.24 1017.56 1017.62 1017.34 1016.99 1016.86 1016.69 1016.55 1017.08 1016.92 1016.71 1016.90 1016.61
998.43 998.74 998.16 998.45 998.95 999.06 999.28 999.48 1000.26 1000.29 1000.42 1001.76 1003.12 1003.71 1004.21 1004.59 1005.04 1005.50 1005.96 1006.71 1007.70 1008.70 1009.09 1009.85 1010.58 1011.09 1011.80 1012.97 1013.30 1013.91 1014.32 1014.40 1015.36 1015.95 1016.05 1016.17 1016.42 1016.87 1017.26 1017.21 1016.89 1016.71 1016.09 1016.25 1016.25 1016.68 1016.34 1016.57 1016.29
998.35 998.10 997.85 998.32 998.72 998.87 999.13 999.57 999.20 999.68 1000.12 1001.07 1002.14 1003.07 1003.73 1004.16 1004.73 1005.18 1005.67 1006.24 1007.21 1008.10 1008.54 1009.29 1010.25 1010.75 1011.54 1012.38 1012.89 1013.32 1014.19 1014.75 1015.25 1015.73 1015.65 1015.89 1015.80 1016.22 1016.64 1016.83 1016.77 1016.51 1016.09 1016.06 1016.10 1016.23 1016.00 1016.26 1015.96
997.83 997.72 998.52 998.50 998.69 998.83 999.19 999.85 999.10 999.34 999.74 1000.28 1001.10 1001.93 1002.94 1003.72 1004.28 1004.86 1005.41 1005.87 1006.64 1007.49 1008.11 1008.94 1009.13 1010.20 1011.21 1012.14 1012.88 1013.12 1013.37 1014.03 1014.64 1015.14 1015.66 1015.65 1015.34 1015.53 1015.95 1016.23 1016.34 1016.13 1016.09 1016.08 1015.94 1015.92 1015.78 1015.86 1015.73
996.95 997.60 997.59 997.94 998.27 998.49 998.45 998.39 998.28 998.49 998.87 999.41 1000.18 1001.01 1002.15 1003.19 1003.77 1004.46 1005.02 1005.66 1006.19 1006.94 1007.75 1008.24 1009.03 1009.98 1010.85 1011.52 1012.26 1012.51 1013.15 1013.93 1014.35 1014.68 1014.98 1015.10 1015.12 1015.08 1015.42 1015.73 1015.74 1015.64 1015.79 1015.98 1015.89 1015.74 1015.76 1015.60 1015.28
997.28 997.04 997.19 997.51 997.89 998.14 998.34 997.96 997.65 997.64 997.99 998.77 999.25 1000.21 1001.30 1002.20 1002.93 1003.75 1004.36 1005.07 1005.71 1006.41 1007.20 1008.00 1008.80 1009.81 1010.66 1011.20 1012.28 1012.50 1013.21 1013.55 1013.85 1014.38 1014.67 1014.79 1014.66 1015.14 1014.85 1015.50 1015.47 1015.52 1015.74 1015.80 1015.84 1015.97 1015.79 1015.62 1015.40
997.66 997.47 997.29 997.29 997.62 997.89 998.09 997.93 997.49 997.46 997.51 997.87 998.54 999.20 1000.17 1001.06 1001.90 1002.78 1003.64 1004.44 1005.03 1005.93 1006.91 1007.75 1008.62 1009.97 1010.91 1011.32 1011.89 1012.17 1012.63 1013.26 1013.53 1013.54 1013.89 1014.43 1014.49 1014.57 1014.80 1015.08 1015.18 1015.33 1015.87 1015.94 1015.89 1015.97 1016.03 1015.72 1015.36
997.85 997.45 997.14 997.33 997.63 997.83 997.72 997.63 997.53 997.54 997.70 997.76 997.86 998.35 999.14 1000.03 1000.88 1001.85 1002.93 1003.60 1004.58 1005.48 1006.51 1007.61 1008.59 1009.62 1010.69 1011.41 1011.71 1011.81 1012.19 1012.56 1012.70 1012.81 1013.63 1014.01 1014.03 1014.03 1014.30 1014.71 1015.17 1015.48 1015.82 1015.94 1016.01 1016.23 1016.12 1016.05 1015.61
997.28 996.99 997.31 997.86 997.70 997.42 997.38 997.65 998.14 998.63 998.68 998.30 998.15 998.03 998.42 999.13 999.84 1001.10 1002.31 1003.08 1003.97 1005.04 1006.21 1007.22 1008.31 1009.42 1010.27 1011.05 1011.56 1011.62 1012.10 1012.58 1012.78 1012.84 1013.21 1013.37 1013.37 1013.66 1013.82 1014.19 1014.72 1015.39 1015.66 1015.87 1016.22 1016.38 1016.37 1016.09 1015.61
997.08 997.61 997.82 997.87 997.64 996.59 997.08 998.50 999.58 1000.62 999.80 999.00 998.49 998.01 998.04 998.49 999.63 1000.85 1002.13 1003.09 1003.84 1004.57 1005.75 1006.82 1007.92 1008.99 1009.97 1010.60 1010.78 1011.09 1011.67 1012.19 1012.30 1012.29 1012.29 1012.64 1012.90 1013.35 1013.54 1013.73 1014.10 1014.84 1015.21 1015.50 1015.79 1015.73 1015.66 1015.91 1015.61
997.64 997.64 998.01 998.04 997.83 997.27 997.09 999.01 1002.28 1001.98 1002.24 1000.37 998.54 998.10 997.78 998.22 999.00 1000.83 1001.48 1001.96 1003.02 1003.95 1005.26 1006.44 1007.47 1008.52 1009.25 1009.96 1010.37 1010.78 1011.03 1011.13 1011.15 1011.56 1011.62 1012.20 1012.58 1012.71 1013.10 1013.43 1013.66 1014.38 1014.51 1014.65 1014.90 1015.04 1015.22 1015.28 1015.07
998.02 998.06 997.87 997.55 997.42 997.40 997.51 999.33 1004.34 1004.86 1005.10 1001.80 999.13 998.45 998.18 998.17 998.99 1001.25 1003.23 1001.45 1002.26 1003.23 1004.71 1006.01 1007.33 1008.20 1008.80 1009.44 1009.88 1010.23 1010.58 1010.59 1010.66 1010.91 1011.30 1011.67 1011.99 1012.28 1012.48 1012.53 1013.03 1013.48 1013.95 1013.93 1014.18 1014.47 1014.72 1014.61 1014.40
997.75 997.40 997.05 997.13 997.23 998.33 998.56 999.18 1002.49 1003.62 1002.44 1001.89 999.24 998.88 998.77 998.59 998.62 999.40 1000.03 1000.52 1001.71 1003.09 1004.35 1005.73 1006.90 1007.83 1008.46 1008.90 1009.19 1009.68 1010.08 1010.33 1010.46 1010.69 1010.70 1010.91 1011.07 1011.23 1011.41 1011.84 1012.14 1012.39 1012.80 1013.29 1013.58 1013.62 1013.88 1014.06 1013.86
997.08 996.85 996.82 997.95 999.04 999.54 999.05 998.99 1000.64 1000.88 1001.24 999.44 999.04 999.50 999.31 999.68 1000.36 1000.65 1000.49 1000.60 1001.50 1002.71 1004.18 1005.10 1006.50 1007.46 1008.06 1008.47 1008.95 1009.17 1009.44 1009.65 1009.65 1009.61 1009.33 1009.19 1009.57 1009.96 1010.06 1011.04 1011.46 1011.89 1012.25 1012.43 1012.79 1012.96 1012.82 1013.21 1013.18
996.97 996.62 996.63 996.95 997.97 998.76 1000.17 1000.44 999.35 999.12 999.04 999.14 999.45 999.59 1000.58 1001.62 1002.66 1003.36 1003.19 1002.35 1002.17 1002.74 1003.42 1004.50 1006.26 1007.16 1007.66 1008.09 1008.43 1008.78 1008.96 1009.00 1009.18 1009.06 1008.48 1008.13 1008.01 1009.02 1009.98 1010.36 1010.65 1011.12 1011.39 1011.57 1011.97 1012.31 1012.41 1012.54 1012.41
996.85 996.76 996.46 996.49 997.57 999.11 1001.29 1002.94 1003.30 999.49 999.17 999.06 999.05 999.98 1002.14 1004.05 1006.39 1005.03 1005.01 1004.50 1003.63 1003.54 1003.92 1004.93 1005.82 1006.58 1007.13 1007.39 1007.67 1007.94 1008.26 1008.56 1008.71 1008.68 1008.27 1008.13 1008.52 1008.79 1009.21 1009.73 1009.98 1010.38 1010.69 1010.75 1011.14 1011.47 1011.57 1011.89 1012.00
996.77 996.94 996.97 996.87 998.02 999.16 1000.89 1003.70 1000.62 999.67 999.61 999.55 999.82 1000.70 1002.26 1003.91 1004.76 1005.08 1005.38 1005.14 1004.63 1004.34 1004.55 1004.96 1005.68 1006.21 1006.66 1006.89 1007.03 1007.29 1007.50 1008.09 1008.39 1008.45 1008.48 1008.67 1008.91 1009.17 1009.32 1009.56 1009.61 1009.90 1010.16 1010.44 1010.57 1010.83 1011.01 1011.27 1011.23
996.51 996.87 997.37 997.52 998.31 998.42 999.54 1000.39 1000.16 1000.14 999.94 1000.31 1000.70 1001.00 1002.24 1003.03 1003.82 1003.99 1003.76 1003.52 1004.42 1004.64 1005.13 1005.82 1006.41 1006.52 1006.59 1006.59 1006.64 1007.00 1007.30 1007.75 1007.87 1008.22 1008.25 1008.62 1008.61 1008.66 1009.32 1009.60 1009.68 1009.57 1009.88 1010.09 1010.30 1010.36 1010.44 1010.64 1010.73
Wind_Speed
9 10 11 1 7 4 8 14 16 6 7 14 12 13 16 2 9 12 18 22 23 19 17 16 17 18 18 18 18 17 17 17 18 17 17 16 15 15 14 13 14 12 13 14 13 13 12 12 11
10 12 2 7 4 3 6 12 13 12 12 5 20 11 18 20 22 21 17 22 21 19 18 17 17 18 19 18 19 17 17 17 17 18 18 17 16 14 14 12 12 11 11 11 12 11 11 10 9
10 13 5 4 5 6 5 15 9 18 9 14 15 15 10 18 26 16 22 22 22 18 17 17 16 19 19 19 19 19 17 17 16 19 17 18 20 15 12 10 10 10 10 9 8 10 9 9 8
6 4 7 1 7 14 12 7 16 9 17 19 17 14 20 15 19 24 24 19 19 19 19 17 17 19 18 17 18 19 18 17 16 19 19 14 17 17 13 9 7 6 8 7 7 6 6 5 6
11 6 4 7 9 13 9 12 15 5 15 14 21 20 14 17 19 25 21 19 17 16 17 17 16 18 17 17 17 17 17 16 17 18 20 18 15 11 11 9 6 2 3 4 5 4 4 4 4
8 2 1 10 19 11 9 10 11 18 16 10 20 16 13 20 18 21 20 20 14 16 18 16 16 16 16 17 17 16 16 17 16 17 17 21 17 8 6 7 6 4 2 1 2 2 2 3 4
8 6 14 16 7 6 9 13 7 13 16 8 20 16 12 17 14 23 14 21 19 18 18 14 14 14 16 15 16 17 16 16 13 13 13 16 19 11 8 3 7 6 6 5 3 3 4 5 5
8 2 11 7 9 8 11 4 10 15 6 9 18 8 16 19 18 27 18 15 13 16 17 14 13 12 12 12 16 17 16 16 13 13 11 11 15 17 14 10 9 8 6 6 5 5 6 7 7
6 4 9 13 9 5 8 11 19 28 13 8 16 16 21 20 19 16 19 15 16 14 15 17 16 12 12 12 12 14 15 14 14 12 12 10 3 6 11 12 10 7 8 9 7 7 7 8 10
4 6 10 14 8 7 4 22 23 13 20 16 16 18 21 20 16 18 16 17 16 13 18 16 16 15 14 10 13 11 8 2 5 6 8 6 6 5 10 13 16 15 12 12 12 11 11 9 6
12 4 9 10 10 5 15 9 15 7 12 17 13 15 19 17 15 15 15 15 19 15 12 12 12 14 12 7 8 5 6 6 5 9 5 5 4 6 5 5 6 6 12 7 10 9 6 7 10
7 5 11 6 3 1 9 9 3 14 7 15 15 16 18 18 16 15 16 14 13 11 12 10 13 7 8 7 6 8 7 6 4 6 8 4 3 3 6 7 7 7 8 8 7 4 6 6 10
11 3 12 9 7 4 1 3 12 14 9 15 17 16 17 16 15 15 14 15 13 11 10 8 15 12 8 8 6 6 6 4 8 7 5 5 7 6 5 7 7 9 9 6 3 6 5 7 7
5 5 1 10 7 5 4 3 19 7 14 16 13 15 16 15 15 14 14 16 15 14 12 11 11 10 9 9 9 6 8 11 7 6 7 10 7 7 7 7 7 6 3 4 4 4 3 1 5
7 11 11 7 7 3 6 4 8 10 12 15 16 15 14 14 15 14 13 15 15 14 13 16 14 13 10 6 6 4 8 10 7 7 7 5 8 7 8 7 5 7 5 7 5 4 3 3 6
14 6 9 5 3 7 9 2 9 11 9 15 16 14 15 14 15 14 13 12 15 14 13 14 12 16 11 9 6 4 3 7 7 7 5 7 3 6 8 6 6 6 5 4 5 4 4 5 6
8 2 8 7 8 4 6 2 10 9 12 11 13 16 13 14 14 14 15 14 14 12 14 12 9 14 13 10 9 8 8 5 4 6 6 7 7 10 5 5 5 4 4 6 5 3 4 2 5
8 3 7 2 9 2 8 11 7 10 14 9 12 18 14 16 16 17 17 15 15 12 12 10 10 10 7 6 7 5 7 5 5 6 5 7 4 5 3 4 3 2 4 3 3 5 5 3 3
6 7 9 3 3 2 5 10 10 7 7 13 9 16 17 16 15 18 16 16 15 14 14 12 10 11 4 4 6 5 7 8 8 7 7 7 6 7 7 2 1 3 4 5 3 3 4 4 5
7 9 4 4 2 7 10 11 4 3 2 2 6 12 15 17 18 16 16 15 13 12 13 13 11 9 5 3 3 3 4 4 5 5 6 8 7 7 6 5 3 4 2 5 4 4 4 3 3
14 8 10 6 11 14 11 7 7 5 6 4 6 8 13 15 19 18 17 15 13 12 13 12 12 11 8 7 5 3 2 1 4 5 6 9 9 8 5 6 4 4 3 1 2 7 6 3 3
10 9 10 9 13 12 13 3 2 19 13 7 5 9 13 15 13 19 20 17 15 13 11 12 13 13 10 9 7 6 4 5 5 6 7 8 9 10 8 8 7 7 5 6 8 7 5 4 6
11 11 7 11 10 16 12 10 10 18 23 20 5 5 14 13 15 28 10 20 18 16 12 10 10 12 11 11 9 6 6 6 7 6 4 6 9 11 11 10 9 9 8 9 9 6 6 7 6
7 11 15 16 12 11 4 9 5 7 26 23 4 6 4 10 11 26 37 19 15 16 14 11 11 9 10 12 11 8 9 8 3 7 5 6 7 8 13 14 12 12 10 8 9 10 9 8 6
12 15 10 7 10 4 11 2 13 22 34 27 1 9 6 6 3 4 13 14 13 18 15 13 13 11 9 9 10 11 10 8 6 5 6 8 8 8 12 13 13 11 11 10 9 10 11 9 6
15 16 9 4 7 3 12 9 14 24 27 6 12 9 7 8 12 14 11 7 11 14 12 12 16 13 12 10 9 8 10 7 8 8 9 11 8 10 12 13 12 11 12 11 9 8 6 7 7
16 16 6 11 23 7 8 10 11 10 13 9 14 11 11 19 17 16 13 10 8 6 4 10 14 11 11 12 9 9 8 9 8 10 10 9 4 1 12 13 11 12 12 11 11 8 9 6 6
16 12 10 7 4 7 5 8 16 9 7 9 5 11 20 23 22 8 8 10 7 3 5 7 4 7 5 6 9 8 8 9 8 7 6 7 5 3 2 5 7 9 11 10 9 11 9 10 8
9 11 12 9 7 4 6 7 18 6 3 5 11 7 18 19 16 6 4 4 7 8 8 4 6 7 10 10 9 8 7 6 9 8 7 6 6 5 6 5 8 9 7 8 9 11 11 12 11
7 7 6 2 9 3 9 6 12 8 6 6 4 10 13 6 9 8 10 9 8 7 6 8 7 6 8 7 1 8 9 9 8 7 8 4 5 2 5 7 7 9 8 8 9 11 10 13 12
Wind_Direction
208 212 227 20 52 298 121 68 83 54 32 52 59 94 103 57 106 114 136 118 121 136 127 131 132 126 126 124 122 121 112 111 106 100 96 94 90 93 89 87 91 101 98 103 103 105 108 110 118
256 230 291 36 11 6 358 117 83 58 86 21 87 64 69 88 95 120 128 132 132 133 146 137 139 133 135 131 129 126 119 114 112 104 96 91 79 74 83 88 86 83 88 99 106 110 113 118 119
248 246 78 164 259 83 83 72 73 30 37 138 80 50 75 105 124 128 127 133 134 145 135 128 135 139 140 138 143 137 130 126 121 113 110 109 97 75 59 64 83 89 85 79 87 106 113 119 129
235 172 44 319 42 96 46 47 100 134 78 83 111 75 95 121 112 127 126 134 139 142 124 135 140 143 142 144 150 146 145 138 129 121 116 104 100 90 63 45 49 76 95 98 94 96 101 115 139
222 108 218 230 73 29 60 36 74 65 54 81 96 107 90 94 117 116 132 126 131 117 131 140 142 146 147 151 153 154 148 143 133 127 124 116 103 88 65 36 27 16 75 111 111 115 119 135 171
268 124 275 58 55 319 15 31 94 91 81 124 115 119 103 112 137 134 142 136 131 130 142 141 142 147 155 156 156 157 156 145 146 137 134 122 113 120 91 13 359 334 338 275 120 153 177 193 212
227 217 91 91 98 273 28 29 15 77 163 96 96 109 131 139 147 134 137 139 156 146 128 142 153 156 160 161 160 155 155 153 161 149 143 138 138 155 176 281 320 307 286 273 223 198 223 233 242
294 6 92 92 133 57 83 75 34 63 63 92 130 147 153 152 157 136 148 145 131 142 143 145 147 158 164 165 169 169 167 166 173 177 165 153 162 182 195 214 267 262 277 267 257 238 242 251 256
261 9 131 75 65 112 119 94 29 355 350 95 105 146 153 150 160 135 153 148 149 160 158 156 156 162 177 167 173 179 175 181 183 184 177 170 137 191 196 210 251 272 274 269 265 254 259 267 265
36 40 38 117 190 100 105 101 109 172 257 100 87 114 136 157 167 154 140 155 155 153 162 166 167 168 179 180 161 171 160 182 182 192 175 188 184 201 208 222 234 254 265 261 257 252 255 266 299
68 54 122 52 26 67 112 174 175 172 59 96 122 136 149 162 177 163 150 159 152 176 160 171 158 166 162 142 157 167 147 191 211 202 162 208 168 197 222 257 246 240 253 245 239 229 230 73 263
112 83 79 88 316 212 50 68 46 81 49 94 128 144 156 166 178 166 164 164 158 177 169 160 140 134 135 142 154 178 157 158 194 209 181 184 194 206 209 223 220 233 241 227 242 167 175 200 227
74 356 140 147 228 104 167 102 18 118 124 104 125 152 158 178 181 168 178 158 169 185 194 147 146 145 158 147 173 168 135 176 182 183 202 202 192 199 249 244 225 219 222 237 244 264 190 171 245
105 212 215 147 135 168 234 122 117 257 120 115 138 157 166 180 180 172 188 164 174 179 187 144 151 154 162 174 178 160 146 222 191 182 189 212 208 174 207 241 248 263 198 253 252 268 231 190 267
245 232 206 94 81 336 45 294 129 111 142 143 156 170 168 181 178 181 199 173 174 175 181 158 161 164 173 178 168 209 162 192 174 186 192 226 225 200 198 221 238 251 241 224 241 283 210 236 267
224 267 122 188 206 144 241 311 136 153 173 159 164 169 165 183 176 184 190 182 167 179 159 166 184 172 175 155 162 225 101 149 165 172 197 202 234 227 207 206 210 231 246 255 247 228 242 209 245
224 188 108 142 144 274 211 324 184 171 156 176 174 160 170 177 183 177 181 187 175 183 167 188 150 171 175 173 169 189 134 120 185 174 185 192 185 229 198 201 222 208 234 227 250 263 244 265 250
229 168 114 182 154 77 302 279 229 214 173 177 182 155 168 174 192 172 183 198 172 173 172 175 161 133 160 152 153 183 122 153 210 203 198 214 207 112 294 220 242 244 257 283 276 286 317 325 272
338 299 327 290 2 271 259 292 278 225 226 173 180 168 171 180 179 170 193 181 184 168 163 172 165 127 123 146 169 201 167 181 194 203 185 199 219 166 178 185 255 202 267 257 252 274 283 290 278
296 273 278 28 357 244 238 238 281 324 247 233 203 173 176 178 168 174 177 179 191 167 164 168 153 143 156 147 233 183 164 206 197 187 175 199 219 163 161 184 191 254 221 240 255 313 257 269 280
257 309 45 321 290 257 252 225 149 112 210 207 242 190 183 179 175 175 174 184 183 168 163 166 158 164 182 209 206 207 140 68 215 180 192 208 204 187 180 186 190 224 222 261 214 241 218 237 277
299 38 329 308 300 303 198 137 319 14 350 153 165 191 177 185 196 170 173 178 184 169 176 167 171 167 181 198 217 198 192 175 197 208 197 189 180 189 187 196 192 218 221 181 227 236 192 208 248
313 339 309 284 273 277 231 135 13 43 339 299 117 29 188 189 199 22 229 174 183 155 170 176 168 170 184 190 212 202 213 213 184 208 188 186 186 197 199 201 204 221 221 204 202 221 230 209 223
291 281 271 257 245 261 307 131 12 85 243 272 145 201 36 334 109 144 233 164 171 155 147 163 167 186 193 187 200 214 218 243 235 188 172 194 205 211 198 197 200 208 214 217 212 215 219 231 234
251 255 261 258 254 12 285 71 170 196 222 246 67 60 42 310 28 84 138 153 151 138 152 151 164 174 191 213 208 201 220 224 239 203 190 201 212 209 204 196 204 200 199 215 221 222 211 218 221
271 274 293 17 314 209 291 135 167 201 208 98 106 82 71 52 41 29 46 113 142 150 168 158 161 173 178 189 216 212 213 214 218 201 232 204 212 212 206 190 203 205 201 209 211 222 214 210 218
246 250 271 237 219 195 15 3 114 123 110 115 97 88 70 63 47 20 9 21 62 143 133 135 162 171 181 193 198 212 222 224 226 235 229 265 190 213 191 190 189 200 210 209 211 215 206 202 212
270 314 295 307 21 360 73 42 252 43 49 74 66 97 80 74 2 355 4 12 30 85 136 114 154 161 169 229 200 208 226 222 240 243 269 292 331 302 200 224 208 198 214 213 219 222 213 200 216
197 240 243 307 295 145 221 216 262 151 67 29 92 87 123 141 164 125 103 54 17 40 36 66 161 186 188 204 218 200 203 234 237 236 229 225 249 243 276 258 264 252 220 218 224 231 221 223 215
220 283 259 279 296 327 323 83 43 26 96 96 349 66 62 36 116 166 158 152 116 101 40 50 10 5 340 336 287 195 212 231 236 230 247 224 225 273 287 250 254 245 251 239 233 229 223 223 223